owner,sensor,date,latitude,longitude,air_pressure(mBar),qcFlag 
WAVCIS,ioos:station:WAVCIS:CSI09:1,2017-02-01T00:00:00Z,29.1015,-89.9782,1020.61,11111222 
WAVCIS,ioos:station:WAVCIS:CSI09:1,2017-02-01T01:00:00Z,29.1015,-89.9782,1020.59,11111222 
WAVCIS,ioos:station:WAVCIS:CSI09:1,2017-02-01T02:00:00Z,29.1015,-89.9782,1020.55,11111222 
WAVCIS,ioos:station:WAVCIS:CSI09:1,2017-02-01T03:00:00Z,29.1015,-89.9782,1020.42,11111222 
WAVCIS,ioos:station:WAVCIS:CSI09:1,2017-02-01T04:00:00Z,29.1015,-89.9782,1020.15,11111222 
WAVCIS,ioos:station:WAVCIS:CSI09:1,2017-02-01T05:00:00Z,29.1015,-89.9782,1019.9,11111222 
WAVCIS,ioos:station:WAVCIS:CSI09:1,2017-02-01T06:00:00Z,29.1015,-89.9782,1019.74,11111222 
WAVCIS,ioos:station:WAVCIS:CSI09:1,2017-02-01T07:00:00Z,29.1015,-89.9782,1019.7,11111222 
WAVCIS,ioos:station:WAVCIS:CSI09:1,2017-02-01T08:00:00Z,29.1015,-89.9782,1019.08,11111222 
WAVCIS,ioos:station:WAVCIS:CSI09:1,2017-02-01T09:00:00Z,29.1015,-89.9782,1019.02,11111222 
WAVCIS,ioos:station:WAVCIS:CSI09:1,2017-02-01T10:00:00Z,29.1015,-89.9782,1019.0,11111222 
WAVCIS,ioos:station:WAVCIS:CSI09:1,2017-02-01T11:00:00Z,29.1015,-89.9782,1019.0,11111222 
WAVCIS,ioos:station:WAVCIS:CSI09:1,2017-02-01T12:00:00Z,29.1015,-89.9782,1019.43,11111222 
WAVCIS,ioos:station:WAVCIS:CSI09:1,2017-02-01T13:00:00Z,29.1015,-89.9782,1019.83,11111222 
WAVCIS,ioos:station:WAVCIS:CSI09:1,2017-02-01T14:00:00Z,29.1015,-89.9782,1020.34,11111222 
WAVCIS,ioos:station:WAVCIS:CSI09:1,2017-02-01T15:00:00Z,29.1015,-89.9782,1020.93,11111222 
WAVCIS,ioos:station:WAVCIS:CSI09:1,2017-02-01T16:00:00Z,29.1015,-89.9782,1021.04,11111222 
WAVCIS,ioos:station:WAVCIS:CSI09:1,2017-02-01T17:00:00Z,29.1015,-89.9782,1021.08,11111222 
WAVCIS,ioos:station:WAVCIS:CSI09:1,2017-02-01T18:00:00Z,29.1015,-89.9782,1020.51,11111222 
WAVCIS,ioos:station:WAVCIS:CSI09:1,2017-02-01T19:00:00Z,29.1015,-89.9782,1019.61,11111222 
WAVCIS,ioos:station:WAVCIS:CSI09:1,2017-02-01T20:00:00Z,29.1015,-89.9782,1019.17,11111222 
WAVCIS,ioos:station:WAVCIS:CSI09:1,2017-02-01T21:00:00Z,29.1015,-89.9782,1018.92,11111222 
WAVCIS,ioos:station:WAVCIS:CSI09:1,2017-02-01T22:00:00Z,29.1015,-89.9782,1018.98,11111222 
WAVCIS,ioos:station:WAVCIS:CSI09:1,2017-02-01T23:00:00Z,29.1015,-89.9782,1019.12,11111222 
WAVCIS,ioos:station:WAVCIS:CSI09:1,2017-02-02T00:00:00Z,29.1015,-89.9782,1019.39,11111222 
WAVCIS,ioos:station:WAVCIS:CSI09:1,2017-02-02T01:00:00Z,29.1015,-89.9782,1019.75,11111222 
WAVCIS,ioos:station:WAVCIS:CSI09:1,2017-02-02T02:00:00Z,29.1015,-89.9782,1020.2,11111222 
WAVCIS,ioos:station:WAVCIS:CSI09:1,2017-02-02T03:00:00Z,29.1015,-89.9782,1020.27,11111222 
WAVCIS,ioos:station:WAVCIS:CSI09:1,2017-02-02T04:00:00Z,29.1015,-89.9782,1020.47,11111222 
WAVCIS,ioos:station:WAVCIS:CSI09:1,2017-02-02T05:00:00Z,29.1015,-89.9782,1020.37,11111222 
WAVCIS,ioos:station:WAVCIS:CSI09:1,2017-02-02T06:00:00Z,29.1015,-89.9782,1020.07,11111222 
WAVCIS,ioos:station:WAVCIS:CSI09:1,2017-02-02T07:00:00Z,29.1015,-89.9782,1019.92,11111222 
WAVCIS,ioos:station:WAVCIS:CSI09:1,2017-02-02T08:00:00Z,29.1015,-89.9782,1019.74,11111222 
WAVCIS,ioos:station:WAVCIS:CSI09:1,2017-02-02T09:00:00Z,29.1015,-89.9782,1020.01,11111222 
WAVCIS,ioos:station:WAVCIS:CSI09:1,2017-02-02T10:00:00Z,29.1015,-89.9782,1020.37,11111222 
WAVCIS,ioos:station:WAVCIS:CSI09:1,2017-02-02T11:00:00Z,29.1015,-89.9782,1020.75,11111222 
WAVCIS,ioos:station:WAVCIS:CSI09:1,2017-02-02T12:00:00Z,29.1015,-89.9782,1021.26,11111222 
WAVCIS,ioos:station:WAVCIS:CSI09:1,2017-02-02T13:00:00Z,29.1015,-89.9782,1021.91,11111222 
WAVCIS,ioos:station:WAVCIS:CSI09:1,2017-02-02T14:00:00Z,29.1015,-89.9782,1022.51,11111222 
WAVCIS,ioos:station:WAVCIS:CSI09:1,2017-02-02T15:00:00Z,29.1015,-89.9782,1023.1,11111222 
WAVCIS,ioos:station:WAVCIS:CSI09:1,2017-02-02T16:00:00Z,29.1015,-89.9782,1023.15,11111222 
WAVCIS,ioos:station:WAVCIS:CSI09:1,2017-02-02T17:00:00Z,29.1015,-89.9782,1023.06,11111222 
WAVCIS,ioos:station:WAVCIS:CSI09:1,2017-02-02T18:00:00Z,29.1015,-89.9782,1022.43,11111222 
WAVCIS,ioos:station:WAVCIS:CSI09:1,2017-02-02T19:00:00Z,29.1015,-89.9782,1021.82,11111222 
WAVCIS,ioos:station:WAVCIS:CSI09:1,2017-02-02T20:00:00Z,29.1015,-89.9782,1021.2,11111222 
WAVCIS,ioos:station:WAVCIS:CSI09:1,2017-02-02T21:00:00Z,29.1015,-89.9782,1020.88,11111222 
WAVCIS,ioos:station:WAVCIS:CSI09:1,2017-02-02T22:00:00Z,29.1015,-89.9782,1021.16,11111222 
WAVCIS,ioos:station:WAVCIS:CSI09:1,2017-02-02T23:00:00Z,29.1015,-89.9782,1021.19,11111222 
WAVCIS,ioos:station:WAVCIS:CSI09:1,2017-02-03T00:00:00Z,29.1015,-89.9782,1021.35,11111222 
WAVCIS,ioos:station:WAVCIS:CSI09:1,2017-02-03T01:00:00Z,29.1015,-89.9782,1021.82,11111222 
WAVCIS,ioos:station:WAVCIS:CSI09:1,2017-02-03T02:00:00Z,29.1015,-89.9782,1021.95,11111222 
WAVCIS,ioos:station:WAVCIS:CSI09:1,2017-02-03T03:00:00Z,29.1015,-89.9782,1021.94,11111222 
WAVCIS,ioos:station:WAVCIS:CSI09:1,2017-02-03T04:00:00Z,29.1015,-89.9782,1021.94,11111222 
WAVCIS,ioos:station:WAVCIS:CSI09:1,2017-02-03T05:00:00Z,29.1015,-89.9782,1021.81,11111222 
WAVCIS,ioos:station:WAVCIS:CSI09:1,2017-02-03T06:00:00Z,29.1015,-89.9782,1021.58,11111222 
WAVCIS,ioos:station:WAVCIS:CSI09:1,2017-02-03T07:00:00Z,29.1015,-89.9782,1021.47,11111222 
WAVCIS,ioos:station:WAVCIS:CSI09:1,2017-02-03T08:00:00Z,29.1015,-89.9782,1021.33,11111222 
WAVCIS,ioos:station:WAVCIS:CSI09:1,2017-02-03T09:00:00Z,29.1015,-89.9782,1021.2,11111222 
WAVCIS,ioos:station:WAVCIS:CSI09:1,2017-02-03T10:00:00Z,29.1015,-89.9782,1021.18,11111222 
WAVCIS,ioos:station:WAVCIS:CSI09:1,2017-02-03T11:00:00Z,29.1015,-89.9782,1021.24,11111222 
WAVCIS,ioos:station:WAVCIS:CSI09:1,2017-02-03T12:00:00Z,29.1015,-89.9782,1021.91,11111222 
WAVCIS,ioos:station:WAVCIS:CSI09:1,2017-02-03T13:00:00Z,29.1015,-89.9782,1022.36,11111222 
WAVCIS,ioos:station:WAVCIS:CSI09:1,2017-02-03T14:00:00Z,29.1015,-89.9782,1023.04,11111222 
WAVCIS,ioos:station:WAVCIS:CSI09:1,2017-02-03T15:00:00Z,29.1015,-89.9782,1023.81,11111222 
WAVCIS,ioos:station:WAVCIS:CSI09:1,2017-02-03T16:00:00Z,29.1015,-89.9782,1024.29,11111222 
WAVCIS,ioos:station:WAVCIS:CSI09:1,2017-02-03T17:00:00Z,29.1015,-89.9782,1024.77,11111222 
WAVCIS,ioos:station:WAVCIS:CSI09:1,2017-02-03T18:00:00Z,29.1015,-89.9782,1024.07,11111222 
WAVCIS,ioos:station:WAVCIS:CSI09:1,2017-02-03T19:00:00Z,29.1015,-89.9782,1023.42,11111222 
WAVCIS,ioos:station:WAVCIS:CSI09:1,2017-02-03T20:00:00Z,29.1015,-89.9782,1022.96,11111222 
WAVCIS,ioos:station:WAVCIS:CSI09:1,2017-02-03T21:00:00Z,29.1015,-89.9782,1022.77,11111222 
WAVCIS,ioos:station:WAVCIS:CSI09:1,2017-02-03T22:00:00Z,29.1015,-89.9782,1023.18,11111222 
WAVCIS,ioos:station:WAVCIS:CSI09:1,2017-02-03T23:00:00Z,29.1015,-89.9782,1023.59,11111222 
WAVCIS,ioos:station:WAVCIS:CSI09:1,2017-02-04T00:00:00Z,29.1015,-89.9782,1024.03,11111222 
WAVCIS,ioos:station:WAVCIS:CSI09:1,2017-02-04T01:00:00Z,29.1015,-89.9782,1024.89,11111222 
WAVCIS,ioos:station:WAVCIS:CSI09:1,2017-02-04T02:00:00Z,29.1015,-89.9782,1025.73,11111222 
WAVCIS,ioos:station:WAVCIS:CSI09:1,2017-02-04T03:00:00Z,29.1015,-89.9782,1026.3,11111222 
WAVCIS,ioos:station:WAVCIS:CSI09:1,2017-02-04T04:00:00Z,29.1015,-89.9782,1026.28,11111222 
WAVCIS,ioos:station:WAVCIS:CSI09:1,2017-02-04T05:00:00Z,29.1015,-89.9782,1026.54,11111222 
WAVCIS,ioos:station:WAVCIS:CSI09:1,2017-02-04T06:00:00Z,29.1015,-89.9782,1026.19,11111222 
WAVCIS,ioos:station:WAVCIS:CSI09:1,2017-02-04T07:00:00Z,29.1015,-89.9782,1025.85,11111222 
WAVCIS,ioos:station:WAVCIS:CSI09:1,2017-02-04T08:00:00Z,29.1015,-89.9782,1025.38,11111222 
WAVCIS,ioos:station:WAVCIS:CSI09:1,2017-02-04T09:00:00Z,29.1015,-89.9782,1025.0,11111222 
WAVCIS,ioos:station:WAVCIS:CSI09:1,2017-02-04T10:00:00Z,29.1015,-89.9782,1024.88,11111222 
WAVCIS,ioos:station:WAVCIS:CSI09:1,2017-02-04T11:00:00Z,29.1015,-89.9782,1024.99,11111222 
WAVCIS,ioos:station:WAVCIS:CSI09:1,2017-02-04T12:00:00Z,29.1015,-89.9782,1024.63,11111222 
WAVCIS,ioos:station:WAVCIS:CSI09:1,2017-02-04T13:00:00Z,29.1015,-89.9782,1025.35,11111222 
WAVCIS,ioos:station:WAVCIS:CSI09:1,2017-02-04T14:00:00Z,29.1015,-89.9782,1025.81,11111222 
WAVCIS,ioos:station:WAVCIS:CSI09:1,2017-02-04T15:00:00Z,29.1015,-89.9782,1026.65,11111222 
WAVCIS,ioos:station:WAVCIS:CSI09:1,2017-02-04T16:00:00Z,29.1015,-89.9782,1027.12,11111222 
WAVCIS,ioos:station:WAVCIS:CSI09:1,2017-02-04T17:00:00Z,29.1015,-89.9782,1026.79,11111222 
WAVCIS,ioos:station:WAVCIS:CSI09:1,2017-02-04T18:00:00Z,29.1015,-89.9782,1026.27,11111222 
WAVCIS,ioos:station:WAVCIS:CSI09:1,2017-02-04T19:00:00Z,29.1015,-89.9782,1025.28,11111222 
WAVCIS,ioos:station:WAVCIS:CSI09:1,2017-02-04T20:00:00Z,29.1015,-89.9782,1024.24,11111222 
WAVCIS,ioos:station:WAVCIS:CSI09:1,2017-02-04T21:00:00Z,29.1015,-89.9782,1023.91,11111222 
WAVCIS,ioos:station:WAVCIS:CSI09:1,2017-02-04T22:00:00Z,29.1015,-89.9782,1023.78,11111222 
WAVCIS,ioos:station:WAVCIS:CSI09:1,2017-02-04T23:00:00Z,29.1015,-89.9782,1023.54,11111222 
WAVCIS,ioos:station:WAVCIS:CSI09:1,2017-02-05T00:00:00Z,29.1015,-89.9782,1023.83,11111222 
WAVCIS,ioos:station:WAVCIS:CSI09:1,2017-02-05T01:00:00Z,29.1015,-89.9782,1023.85,11111222 
WAVCIS,ioos:station:WAVCIS:CSI09:1,2017-02-05T02:00:00Z,29.1015,-89.9782,1023.95,11111222 
WAVCIS,ioos:station:WAVCIS:CSI09:1,2017-02-05T03:00:00Z,29.1015,-89.9782,1024.25,11111222 
WAVCIS,ioos:station:WAVCIS:CSI09:1,2017-02-05T04:00:00Z,29.1015,-89.9782,1023.89,11111222 
WAVCIS,ioos:station:WAVCIS:CSI09:1,2017-02-05T05:00:00Z,29.1015,-89.9782,1023.26,11111222 
WAVCIS,ioos:station:WAVCIS:CSI09:1,2017-02-05T06:00:00Z,29.1015,-89.9782,1022.91,11111222 
WAVCIS,ioos:station:WAVCIS:CSI09:1,2017-02-05T07:00:00Z,29.1015,-89.9782,1022.63,11111222 
WAVCIS,ioos:station:WAVCIS:CSI09:1,2017-02-05T08:00:00Z,29.1015,-89.9782,1022.17,11111222 
WAVCIS,ioos:station:WAVCIS:CSI09:1,2017-02-05T09:00:00Z,29.1015,-89.9782,1021.86,11111222 
WAVCIS,ioos:station:WAVCIS:CSI09:1,2017-02-05T10:00:00Z,29.1015,-89.9782,1021.6,11111222 
WAVCIS,ioos:station:WAVCIS:CSI09:1,2017-02-05T11:00:00Z,29.1015,-89.9782,1021.51,11111222 
WAVCIS,ioos:station:WAVCIS:CSI09:1,2017-02-05T12:00:00Z,29.1015,-89.9782,1021.88,11111222 
WAVCIS,ioos:station:WAVCIS:CSI09:1,2017-02-05T13:00:00Z,29.1015,-89.9782,1022.0,11111222 
WAVCIS,ioos:station:WAVCIS:CSI09:1,2017-02-05T14:00:00Z,29.1015,-89.9782,1022.6,11111222 
WAVCIS,ioos:station:WAVCIS:CSI09:1,2017-02-05T15:00:00Z,29.1015,-89.9782,1022.85,11111222 
WAVCIS,ioos:station:WAVCIS:CSI09:1,2017-02-05T16:00:00Z,29.1015,-89.9782,1022.9,11111222 
WAVCIS,ioos:station:WAVCIS:CSI09:1,2017-02-05T17:00:00Z,29.1015,-89.9782,1022.91,11111222 
WAVCIS,ioos:station:WAVCIS:CSI09:1,2017-02-05T18:00:00Z,29.1015,-89.9782,1022.19,11111222 
WAVCIS,ioos:station:WAVCIS:CSI09:1,2017-02-05T19:00:00Z,29.1015,-89.9782,1021.46,11111222 
WAVCIS,ioos:station:WAVCIS:CSI09:1,2017-02-05T20:00:00Z,29.1015,-89.9782,1020.56,11111222 
WAVCIS,ioos:station:WAVCIS:CSI09:1,2017-02-05T21:00:00Z,29.1015,-89.9782,1020.03,11111222 
WAVCIS,ioos:station:WAVCIS:CSI09:1,2017-02-05T22:00:00Z,29.1015,-89.9782,1020.2,11111222 
WAVCIS,ioos:station:WAVCIS:CSI09:1,2017-02-05T23:00:00Z,29.1015,-89.9782,1020.45,11111222 
WAVCIS,ioos:station:WAVCIS:CSI09:1,2017-02-06T00:00:00Z,29.1015,-89.9782,1020.69,11111222 
WAVCIS,ioos:station:WAVCIS:CSI09:1,2017-02-06T01:00:00Z,29.1015,-89.9782,1020.84,11111222 
WAVCIS,ioos:station:WAVCIS:CSI09:1,2017-02-06T02:00:00Z,29.1015,-89.9782,1021.05,11111222 
WAVCIS,ioos:station:WAVCIS:CSI09:1,2017-02-06T03:00:00Z,29.1015,-89.9782,1021.12,11111222 
WAVCIS,ioos:station:WAVCIS:CSI09:1,2017-02-06T04:00:00Z,29.1015,-89.9782,1021.07,11111222 
WAVCIS,ioos:station:WAVCIS:CSI09:1,2017-02-06T05:00:00Z,29.1015,-89.9782,1020.94,11111222 
WAVCIS,ioos:station:WAVCIS:CSI09:1,2017-02-06T06:00:00Z,29.1015,-89.9782,1020.36,11111222 
WAVCIS,ioos:station:WAVCIS:CSI09:1,2017-02-06T07:00:00Z,29.1015,-89.9782,1020.03,11111222 
WAVCIS,ioos:station:WAVCIS:CSI09:1,2017-02-06T08:00:00Z,29.1015,-89.9782,1019.66,11111222 
WAVCIS,ioos:station:WAVCIS:CSI09:1,2017-02-06T09:00:00Z,29.1015,-89.9782,1019.43,11111222 
WAVCIS,ioos:station:WAVCIS:CSI09:1,2017-02-06T10:00:00Z,29.1015,-89.9782,1018.86,11111222 
WAVCIS,ioos:station:WAVCIS:CSI09:1,2017-02-06T11:00:00Z,29.1015,-89.9782,1018.74,11111222 
WAVCIS,ioos:station:WAVCIS:CSI09:1,2017-02-06T12:00:00Z,29.1015,-89.9782,1019.29,11111222 
WAVCIS,ioos:station:WAVCIS:CSI09:1,2017-02-06T13:00:00Z,29.1015,-89.9782,1019.79,11111222 
WAVCIS,ioos:station:WAVCIS:CSI09:1,2017-02-06T14:00:00Z,29.1015,-89.9782,1020.15,11111222 
WAVCIS,ioos:station:WAVCIS:CSI09:1,2017-02-06T15:00:00Z,29.1015,-89.9782,1020.5,11111222 
WAVCIS,ioos:station:WAVCIS:CSI09:1,2017-02-06T16:00:00Z,29.1015,-89.9782,1021.09,11111222 
WAVCIS,ioos:station:WAVCIS:CSI09:1,2017-02-06T17:00:00Z,29.1015,-89.9782,1021.45,11111222 
WAVCIS,ioos:station:WAVCIS:CSI09:1,2017-02-06T18:00:00Z,29.1015,-89.9782,1020.59,11111222 
WAVCIS,ioos:station:WAVCIS:CSI09:1,2017-02-06T19:00:00Z,29.1015,-89.9782,1019.35,11111222 
WAVCIS,ioos:station:WAVCIS:CSI09:1,2017-02-06T20:00:00Z,29.1015,-89.9782,1018.77,11111222 
WAVCIS,ioos:station:WAVCIS:CSI09:1,2017-02-06T21:00:00Z,29.1015,-89.9782,1018.18,11111222 
WAVCIS,ioos:station:WAVCIS:CSI09:1,2017-02-06T22:00:00Z,29.1015,-89.9782,1017.82,11111222 
WAVCIS,ioos:station:WAVCIS:CSI09:1,2017-02-06T23:00:00Z,29.1015,-89.9782,1017.77,11111222 
WAVCIS,ioos:station:WAVCIS:CSI09:1,2017-02-07T00:00:00Z,29.1015,-89.9782,1017.3,11111222 
WAVCIS,ioos:station:WAVCIS:CSI09:1,2017-02-07T01:00:00Z,29.1015,-89.9782,1017.04,11111222 
WAVCIS,ioos:station:WAVCIS:CSI09:1,2017-02-07T02:00:00Z,29.1015,-89.9782,1016.98,11111222 
WAVCIS,ioos:station:WAVCIS:CSI09:1,2017-02-07T03:00:00Z,29.1015,-89.9782,1016.66,11111222 
WAVCIS,ioos:station:WAVCIS:CSI09:1,2017-02-07T04:00:00Z,29.1015,-89.9782,1016.01,11111222 
WAVCIS,ioos:station:WAVCIS:CSI09:1,2017-02-07T05:00:00Z,29.1015,-89.9782,1015.55,11111222 
WAVCIS,ioos:station:WAVCIS:CSI09:1,2017-02-07T06:00:00Z,29.1015,-89.9782,1015.05,11111222 
WAVCIS,ioos:station:WAVCIS:CSI09:1,2017-02-07T07:00:00Z,29.1015,-89.9782,1014.19,11111222 
WAVCIS,ioos:station:WAVCIS:CSI09:1,2017-02-07T08:00:00Z,29.1015,-89.9782,1014.15,11111222 
WAVCIS,ioos:station:WAVCIS:CSI09:1,2017-02-07T09:00:00Z,29.1015,-89.9782,1013.66,11111222 
WAVCIS,ioos:station:WAVCIS:CSI09:1,2017-02-07T10:00:00Z,29.1015,-89.9782,1013.31,11111222 
WAVCIS,ioos:station:WAVCIS:CSI09:1,2017-02-07T11:00:00Z,29.1015,-89.9782,1012.86,11111222 
WAVCIS,ioos:station:WAVCIS:CSI09:1,2017-02-07T12:00:00Z,29.1015,-89.9782,1013.19,11111222 
WAVCIS,ioos:station:WAVCIS:CSI09:1,2017-02-07T13:00:00Z,29.1015,-89.9782,1013.15,11111222 
WAVCIS,ioos:station:WAVCIS:CSI09:1,2017-02-07T14:00:00Z,29.1015,-89.9782,1013.19,11111222 
WAVCIS,ioos:station:WAVCIS:CSI09:1,2017-02-07T15:00:00Z,29.1015,-89.9782,1013.55,11111222 
WAVCIS,ioos:station:WAVCIS:CSI09:1,2017-02-07T16:00:00Z,29.1015,-89.9782,1013.31,11111222 
WAVCIS,ioos:station:WAVCIS:CSI09:1,2017-02-07T17:00:00Z,29.1015,-89.9782,1012.57,11111222 
WAVCIS,ioos:station:WAVCIS:CSI09:1,2017-02-07T18:00:00Z,29.1015,-89.9782,1011.87,11111222 
WAVCIS,ioos:station:WAVCIS:CSI09:1,2017-02-07T19:00:00Z,29.1015,-89.9782,1010.46,11111222 
WAVCIS,ioos:station:WAVCIS:CSI09:1,2017-02-07T20:00:00Z,29.1015,-89.9782,1009.58,11111222 
WAVCIS,ioos:station:WAVCIS:CSI09:1,2017-02-07T21:00:00Z,29.1015,-89.9782,1009.16,11111222 
WAVCIS,ioos:station:WAVCIS:CSI09:1,2017-02-07T22:00:00Z,29.1015,-89.9782,1008.99,11111222 
WAVCIS,ioos:station:WAVCIS:CSI09:1,2017-02-07T23:00:00Z,29.1015,-89.9782,1009.14,11111222 
WAVCIS,ioos:station:WAVCIS:CSI09:1,2017-02-08T00:00:00Z,29.1015,-89.9782,1008.94,11111222 
WAVCIS,ioos:station:WAVCIS:CSI09:1,2017-02-08T01:00:00Z,29.1015,-89.9782,1009.24,11111222 
WAVCIS,ioos:station:WAVCIS:CSI09:1,2017-02-08T02:00:00Z,29.1015,-89.9782,1009.78,11111222 
WAVCIS,ioos:station:WAVCIS:CSI09:1,2017-02-08T03:00:00Z,29.1015,-89.9782,1009.94,11111222 
WAVCIS,ioos:station:WAVCIS:CSI09:1,2017-02-08T04:00:00Z,29.1015,-89.9782,1010.25,11111222 
WAVCIS,ioos:station:WAVCIS:CSI09:1,2017-02-08T05:00:00Z,29.1015,-89.9782,1010.54,11111222 
WAVCIS,ioos:station:WAVCIS:CSI09:1,2017-02-08T06:00:00Z,29.1015,-89.9782,1010.4,11111222 
WAVCIS,ioos:station:WAVCIS:CSI09:1,2017-02-08T07:00:00Z,29.1015,-89.9782,1010.18,11111222 
WAVCIS,ioos:station:WAVCIS:CSI09:1,2017-02-08T08:00:00Z,29.1015,-89.9782,1009.87,11111222 
WAVCIS,ioos:station:WAVCIS:CSI09:1,2017-02-08T09:00:00Z,29.1015,-89.9782,1009.41,11111222 
WAVCIS,ioos:station:WAVCIS:CSI09:1,2017-02-08T10:00:00Z,29.1015,-89.9782,1009.51,11111222 
WAVCIS,ioos:station:WAVCIS:CSI09:1,2017-02-08T11:00:00Z,29.1015,-89.9782,1009.49,11111222 
WAVCIS,ioos:station:WAVCIS:CSI09:1,2017-02-08T12:00:00Z,29.1015,-89.9782,1009.68,11111222 
WAVCIS,ioos:station:WAVCIS:CSI09:1,2017-02-08T13:00:00Z,29.1015,-89.9782,1009.95,11111222 
WAVCIS,ioos:station:WAVCIS:CSI09:1,2017-02-08T14:00:00Z,29.1015,-89.9782,1010.94,11111222 
WAVCIS,ioos:station:WAVCIS:CSI09:1,2017-02-08T15:00:00Z,29.1015,-89.9782,1011.38,11111222 
WAVCIS,ioos:station:WAVCIS:CSI09:1,2017-02-08T16:00:00Z,29.1015,-89.9782,1011.98,11111222 
WAVCIS,ioos:station:WAVCIS:CSI09:1,2017-02-08T17:00:00Z,29.1015,-89.9782,1011.58,11111222 
WAVCIS,ioos:station:WAVCIS:CSI09:1,2017-02-08T18:00:00Z,29.1015,-89.9782,1011.29,11111222 
WAVCIS,ioos:station:WAVCIS:CSI09:1,2017-02-08T19:00:00Z,29.1015,-89.9782,1010.43,11111222 
WAVCIS,ioos:station:WAVCIS:CSI09:1,2017-02-08T20:00:00Z,29.1015,-89.9782,1010.21,11111222 
WAVCIS,ioos:station:WAVCIS:CSI09:1,2017-02-08T21:00:00Z,29.1015,-89.9782,1009.87,11111222 
WAVCIS,ioos:station:WAVCIS:CSI09:1,2017-02-08T22:00:00Z,29.1015,-89.9782,1010.21,11111222 
WAVCIS,ioos:station:WAVCIS:CSI09:1,2017-02-08T23:00:00Z,29.1015,-89.9782,1010.62,11111222 
WAVCIS,ioos:station:WAVCIS:CSI09:1,2017-02-09T00:00:00Z,29.1015,-89.9782,1011.33,11111222 
WAVCIS,ioos:station:WAVCIS:CSI09:1,2017-02-09T01:00:00Z,29.1015,-89.9782,1011.94,11111222 
WAVCIS,ioos:station:WAVCIS:CSI09:1,2017-02-09T02:00:00Z,29.1015,-89.9782,1012.53,11111222 
WAVCIS,ioos:station:WAVCIS:CSI09:1,2017-02-09T03:00:00Z,29.1015,-89.9782,1013.43,11111222 
WAVCIS,ioos:station:WAVCIS:CSI09:1,2017-02-09T04:00:00Z,29.1015,-89.9782,1013.8,11111222 
WAVCIS,ioos:station:WAVCIS:CSI09:1,2017-02-09T05:00:00Z,29.1015,-89.9782,1014.46,11111222 
WAVCIS,ioos:station:WAVCIS:CSI09:1,2017-02-09T06:00:00Z,29.1015,-89.9782,1014.99,11111222 
WAVCIS,ioos:station:WAVCIS:CSI09:1,2017-02-09T07:00:00Z,29.1015,-89.9782,1014.91,11111222 
WAVCIS,ioos:station:WAVCIS:CSI09:1,2017-02-09T08:00:00Z,29.1015,-89.9782,1015.15,11111222 
WAVCIS,ioos:station:WAVCIS:CSI09:1,2017-02-09T09:00:00Z,29.1015,-89.9782,1015.86,11111222 
WAVCIS,ioos:station:WAVCIS:CSI09:1,2017-02-09T10:00:00Z,29.1015,-89.9782,1016.38,11111222 
WAVCIS,ioos:station:WAVCIS:CSI09:1,2017-02-09T11:00:00Z,29.1015,-89.9782,1017.31,11111222 
WAVCIS,ioos:station:WAVCIS:CSI09:1,2017-02-09T12:00:00Z,29.1015,-89.9782,1018.61,11111222 
WAVCIS,ioos:station:WAVCIS:CSI09:1,2017-02-09T13:00:00Z,29.1015,-89.9782,1020.28,11111222 
WAVCIS,ioos:station:WAVCIS:CSI09:1,2017-02-09T14:00:00Z,29.1015,-89.9782,1021.83,11111222 
WAVCIS,ioos:station:WAVCIS:CSI09:1,2017-02-09T15:00:00Z,29.1015,-89.9782,1022.74,11111222 
WAVCIS,ioos:station:WAVCIS:CSI09:1,2017-02-09T16:00:00Z,29.1015,-89.9782,1023.78,11111222 
WAVCIS,ioos:station:WAVCIS:CSI09:1,2017-02-09T17:00:00Z,29.1015,-89.9782,1024.1,11111222 
WAVCIS,ioos:station:WAVCIS:CSI09:1,2017-02-09T18:00:00Z,29.1015,-89.9782,1024.06,11111222 
WAVCIS,ioos:station:WAVCIS:CSI09:1,2017-02-09T19:00:00Z,29.1015,-89.9782,1023.15,11111222 
WAVCIS,ioos:station:WAVCIS:CSI09:1,2017-02-09T20:00:00Z,29.1015,-89.9782,1022.95,11111222 
WAVCIS,ioos:station:WAVCIS:CSI09:1,2017-02-09T21:00:00Z,29.1015,-89.9782,1023.24,11111222 
WAVCIS,ioos:station:WAVCIS:CSI09:1,2017-02-09T22:00:00Z,29.1015,-89.9782,1023.5,11111222 
WAVCIS,ioos:station:WAVCIS:CSI09:1,2017-02-09T23:00:00Z,29.1015,-89.9782,1024.35,11111222 
WAVCIS,ioos:station:WAVCIS:CSI09:1,2017-02-10T00:00:00Z,29.1015,-89.9782,1025.26,11111222 
WAVCIS,ioos:station:WAVCIS:CSI09:1,2017-02-10T01:00:00Z,29.1015,-89.9782,1025.63,11111222 
WAVCIS,ioos:station:WAVCIS:CSI09:1,2017-02-10T02:00:00Z,29.1015,-89.9782,1026.36,11111222 
WAVCIS,ioos:station:WAVCIS:CSI09:1,2017-02-10T03:00:00Z,29.1015,-89.9782,1026.99,11111222 
WAVCIS,ioos:station:WAVCIS:CSI09:1,2017-02-10T04:00:00Z,29.1015,-89.9782,1026.88,11111222 
WAVCIS,ioos:station:WAVCIS:CSI09:1,2017-02-10T05:00:00Z,29.1015,-89.9782,1026.91,11111222 
WAVCIS,ioos:station:WAVCIS:CSI09:1,2017-02-10T06:00:00Z,29.1015,-89.9782,1026.66,11111222 
WAVCIS,ioos:station:WAVCIS:CSI09:1,2017-02-10T07:00:00Z,29.1015,-89.9782,1026.39,11111222 
WAVCIS,ioos:station:WAVCIS:CSI09:1,2017-02-10T08:00:00Z,29.1015,-89.9782,1025.82,11111222 
WAVCIS,ioos:station:WAVCIS:CSI09:1,2017-02-10T09:00:00Z,29.1015,-89.9782,1025.85,11111222 
WAVCIS,ioos:station:WAVCIS:CSI09:1,2017-02-10T10:00:00Z,29.1015,-89.9782,1025.46,11111222 
WAVCIS,ioos:station:WAVCIS:CSI09:1,2017-02-10T11:00:00Z,29.1015,-89.9782,1025.3,11111222 
WAVCIS,ioos:station:WAVCIS:CSI09:1,2017-02-10T12:00:00Z,29.1015,-89.9782,1025.84,11111222 
WAVCIS,ioos:station:WAVCIS:CSI09:1,2017-02-10T13:00:00Z,29.1015,-89.9782,1026.32,11111222 
WAVCIS,ioos:station:WAVCIS:CSI09:1,2017-02-10T14:00:00Z,29.1015,-89.9782,1026.7,11111222 
WAVCIS,ioos:station:WAVCIS:CSI09:1,2017-02-10T15:00:00Z,29.1015,-89.9782,1026.97,11111222 
WAVCIS,ioos:station:WAVCIS:CSI09:1,2017-02-10T16:00:00Z,29.1015,-89.9782,1027.3,11111222 
WAVCIS,ioos:station:WAVCIS:CSI09:1,2017-02-10T17:00:00Z,29.1015,-89.9782,1027.2,11111222 
WAVCIS,ioos:station:WAVCIS:CSI09:1,2017-02-10T18:00:00Z,29.1015,-89.9782,1026.48,11111222 
WAVCIS,ioos:station:WAVCIS:CSI09:1,2017-02-10T19:00:00Z,29.1015,-89.9782,1025.29,11111222 
WAVCIS,ioos:station:WAVCIS:CSI09:1,2017-02-10T20:00:00Z,29.1015,-89.9782,1024.71,11111222 
WAVCIS,ioos:station:WAVCIS:CSI09:1,2017-02-10T21:00:00Z,29.1015,-89.9782,1023.94,11111222 
WAVCIS,ioos:station:WAVCIS:CSI09:1,2017-02-10T22:00:00Z,29.1015,-89.9782,1023.86,11111222 
WAVCIS,ioos:station:WAVCIS:CSI09:1,2017-02-10T23:00:00Z,29.1015,-89.9782,1023.68,11111222 
WAVCIS,ioos:station:WAVCIS:CSI09:1,2017-02-11T00:00:00Z,29.1015,-89.9782,1023.65,11111222 
WAVCIS,ioos:station:WAVCIS:CSI09:1,2017-02-11T01:00:00Z,29.1015,-89.9782,1023.66,11111222 
WAVCIS,ioos:station:WAVCIS:CSI09:1,2017-02-11T02:00:00Z,29.1015,-89.9782,1023.48,11111222 
WAVCIS,ioos:station:WAVCIS:CSI09:1,2017-02-11T03:00:00Z,29.1015,-89.9782,1023.05,11111222 
WAVCIS,ioos:station:WAVCIS:CSI09:1,2017-02-11T04:00:00Z,29.1015,-89.9782,1022.68,11111222 
WAVCIS,ioos:station:WAVCIS:CSI09:1,2017-02-11T05:00:00Z,29.1015,-89.9782,1022.16,11111222 
WAVCIS,ioos:station:WAVCIS:CSI09:1,2017-02-11T06:00:00Z,29.1015,-89.9782,1021.75,11111222 
WAVCIS,ioos:station:WAVCIS:CSI09:1,2017-02-11T07:00:00Z,29.1015,-89.9782,1021.55,11111222 
WAVCIS,ioos:station:WAVCIS:CSI09:1,2017-02-11T08:00:00Z,29.1015,-89.9782,1021.25,11111222 
WAVCIS,ioos:station:WAVCIS:CSI09:1,2017-02-11T09:00:00Z,29.1015,-89.9782,1021.09,11111222 
WAVCIS,ioos:station:WAVCIS:CSI09:1,2017-02-11T10:00:00Z,29.1015,-89.9782,1021.19,11111222 
WAVCIS,ioos:station:WAVCIS:CSI09:1,2017-02-11T11:00:00Z,29.1015,-89.9782,1021.57,11111222 
WAVCIS,ioos:station:WAVCIS:CSI09:1,2017-02-11T12:00:00Z,29.1015,-89.9782,1021.87,11111222 
WAVCIS,ioos:station:WAVCIS:CSI09:1,2017-02-11T13:00:00Z,29.1015,-89.9782,1022.22,11111222 
WAVCIS,ioos:station:WAVCIS:CSI09:1,2017-02-11T14:00:00Z,29.1015,-89.9782,1022.61,11111222 
WAVCIS,ioos:station:WAVCIS:CSI09:1,2017-02-11T15:00:00Z,29.1015,-89.9782,1023.07,11111222 
WAVCIS,ioos:station:WAVCIS:CSI09:1,2017-02-11T16:00:00Z,29.1015,-89.9782,1023.31,11111222 
WAVCIS,ioos:station:WAVCIS:CSI09:1,2017-02-11T17:00:00Z,29.1015,-89.9782,1023.01,11111222 
WAVCIS,ioos:station:WAVCIS:CSI09:1,2017-02-11T18:00:00Z,29.1015,-89.9782,1022.35,11111222 
WAVCIS,ioos:station:WAVCIS:CSI09:1,2017-02-11T19:00:00Z,29.1015,-89.9782,1021.51,11111222 
WAVCIS,ioos:station:WAVCIS:CSI09:1,2017-02-11T20:00:00Z,29.1015,-89.9782,1020.97,11111222 
WAVCIS,ioos:station:WAVCIS:CSI09:1,2017-02-11T21:00:00Z,29.1015,-89.9782,1020.73,11111222 
WAVCIS,ioos:station:WAVCIS:CSI09:1,2017-02-11T22:00:00Z,29.1015,-89.9782,1020.66,11111222 